Location: Unspecified
(0.0000°N, 0.0000°E)
Time: 23:25:19
(UTC+00:00)

X-37B - Pass Details

Date: 16 January 2022
Orbit: 334 x 337 km, 45.0° (Epoch: 11 January)

Event Time Altitude Azimuth Distance (km) Brightness Sun altitude
Rises 20:02:07 0° 224° (SW) 2,097 5.4 -26.1°
Reaches altitude 10° 20:04:07 10° 225° (SW) 1,259 4.0 -26.5°
Enters shadow 20:04:33 13° 225° (SW) 1,083 3.6 -26.6°
